TOM51X EGSS-LEPA

Flight info

Callsign TOM51X
Flight time N/A
Altitude 35000
Route NUGBO M183 SILVA Q41 COWLY UT71 VAPID UN859 SOPIL DCT BALAN DCT EVPOK DCT NARAK DCT GAI DCT LOMRA DCT ROCAN DCT IBRAP N13 LORES
Aircraft A320/M-SDE3FGHIRWY/LB1

Departure

Time 2026-05-04 09:42
Airport London Stansted Airport (EGSS)

Arrival

Time N/A
Airport Palma de Mallorca Airport (LEPA)
Time Latitude Longitude Altitude Speed Heading
2026-05-04 09:07 51.89110 0.25572 354 ft 0 kts 42°
2026-05-04 09:20 51.89110 0.25571 354 ft 0 kts 42°
2026-05-04 09:31 51.89101 0.25559 346 ft 4 kts 37°
2026-05-04 09:32 51.89079 0.25538 353 ft 4 kts 12°
2026-05-04 09:32 51.89055 0.25540 337 ft 4 kts 320°
2026-05-04 09:34 51.89048 0.25550 338 ft 0 kts 313°
2026-05-04 09:35 51.89062 0.25527 340 ft 11 kts 313°
2026-05-04 09:37 51.88901 0.24568 343 ft 17 kts 223°
2026-05-04 09:37 51.88822 0.24449 344 ft 14 kts 223°
2026-05-04 09:38 51.88731 0.24311 347 ft 24 kts 223°
2026-05-04 09:38 51.88606 0.24122 342 ft 25 kts 223°
2026-05-04 09:38 51.88473 0.23924 337 ft 27 kts 221°
2026-05-04 09:38 51.88333 0.23715 337 ft 28 kts 223°
2026-05-04 09:39 51.88185 0.23495 338 ft 29 kts 222°
2026-05-04 09:39 51.88031 0.23267 335 ft 30 kts 222°
2026-05-04 09:39 51.87872 0.23033 335 ft 31 kts 222°
2026-05-04 09:39 51.87712 0.22789 337 ft 32 kts 224°
2026-05-04 09:40 51.87554 0.22548 333 ft 23 kts 223°
2026-05-04 09:40 51.87550 0.22372 331 ft 17 kts 311°
2026-05-04 09:40 51.87579 0.22321 329 ft 0 kts 314°
2026-05-04 09:41 51.87593 0.22301 328 ft 13 kts 319°
2026-05-04 09:42 51.91332 0.27763 2100 ft 168 kts 42°
2026-05-04 09:43 51.92228 0.29110 2474 ft 186 kts 43°
2026-05-04 09:43 51.93228 0.30620 2731 ft 207 kts 42°
2026-05-04 09:43 51.94506 0.31865 3037 ft 228 kts 14°
2026-05-04 09:43 51.96145 0.31804 3393 ft 251 kts 339°
2026-05-04 09:44 51.97528 0.30030 4017 ft 262 kts 302°
2026-05-04 09:44 51.98018 0.27195 4801 ft 267 kts 266°
2026-05-04 09:44 51.97670 0.24221 5625 ft 270 kts 256°
2026-05-04 09:46 51.98569 0.02927 7050 ft 272 kts 257°
2026-05-04 09:46 51.98181 -0.00039 7052 ft 272 kts 258°
2026-05-04 09:46 51.97783 -0.03089 7031 ft 274 kts 257°
2026-05-04 09:47 51.97393 -0.06080 7031 ft 274 kts 258°
2026-05-04 09:47 51.96998 -0.09112 7031 ft 275 kts 257°
2026-05-04 09:49 51.94146 -0.30961 10540 ft 318 kts 257°
2026-05-04 09:49 51.93666 -0.34594 10688 ft 340 kts 257°
2026-05-04 09:49 51.93162 -0.38404 10923 ft 357 kts 257°
2026-05-04 09:51 51.89900 -0.62881 14578 ft 381 kts 257°
2026-05-04 09:51 51.89339 -0.67086 15144 ft 384 kts 257°
2026-05-04 09:51 51.88769 -0.71321 15700 ft 387 kts 256°
2026-05-04 09:51 51.88189 -0.75605 15966 ft 389 kts 256°
2026-05-04 09:52 51.87606 -0.79879 16025 ft 389 kts 256°
2026-05-04 09:52 51.87024 -0.84090 16029 ft 388 kts 256°
2026-05-04 09:52 51.86433 -0.88352 16030 ft 388 kts 255°
2026-05-04 09:52 51.85558 -0.92458 16030 ft 386 kts 243°
2026-05-04 09:53 51.84111 -0.96102 16044 ft 385 kts 229°
2026-05-04 09:53 51.82177 -0.99077 16050 ft 384 kts 216°
2026-05-04 09:53 51.79868 -1.01244 16025 ft 384 kts 202°
2026-05-04 09:53 51.77319 -1.02469 16030 ft 384 kts 190°
2026-05-04 09:54 51.74676 -1.03148 16030 ft 384 kts 189°
2026-05-04 09:54 51.72031 -1.03820 16030 ft 384 kts 189°
2026-05-04 09:54 51.69387 -1.04497 16030 ft 384 kts 189°
2026-05-04 09:54 51.66742 -1.05177 16030 ft 384 kts 189°
2026-05-04 09:55 51.64134 -1.05847 16029 ft 384 kts 189°
2026-05-04 09:55 51.61478 -1.06400 16029 ft 384 kts 183°
2026-05-04 09:55 51.58804 -1.06358 16030 ft 385 kts 178°
2026-05-04 09:55 51.56128 -1.06207 16030 ft 384 kts 178°
2026-05-04 09:56 51.53451 -1.06056 16029 ft 384 kts 178°
2026-05-04 09:56 51.50774 -1.05905 16029 ft 384 kts 178°
2026-05-04 09:56 51.48109 -1.05758 16027 ft 384 kts 178°
2026-05-04 09:56 51.45438 -1.05612 16027 ft 384 kts 178°
2026-05-04 09:57 51.42800 -1.05466 16024 ft 384 kts 178°
2026-05-04 09:57 51.40089 -1.05316 16024 ft 384 kts 178°
2026-05-04 09:57 51.37448 -1.05171 16264 ft 387 kts 178°
2026-05-04 09:57 51.34752 -1.05023 16883 ft 389 kts 178°
2026-05-04 09:58 51.32037 -1.04870 17476 ft 391 kts 179°
2026-05-04 09:58 51.29302 -1.04719 18067 ft 394 kts 179°
2026-05-04 09:58 51.26567 -1.04374 18561 ft 397 kts 171°
2026-05-04 10:00 51.08163 -0.91984 20892 ft 433 kts 157°
2026-05-04 10:00 51.05396 -0.89986 21023 ft 440 kts 157°
2026-05-04 10:02 50.85294 -0.75376 22143 ft 464 kts 152°
2026-05-04 10:04 50.66120 -0.55950 23248 ft 470 kts 148°
2026-05-04 10:04 50.63367 -0.53173 23393 ft 470 kts 149°
2026-05-04 10:04 50.60614 -0.50398 23528 ft 469 kts 149°
2026-05-04 10:04 50.57863 -0.47629 23651 ft 469 kts 149°
2026-05-04 10:05 50.55113 -0.44864 23773 ft 468 kts 149°
2026-05-04 10:05 50.52375 -0.42111 23889 ft 468 kts 149°
2026-05-04 10:05 50.49635 -0.39353 24009 ft 467 kts 149°
2026-05-04 10:05 50.46902 -0.36603 24127 ft 467 kts 149°
2026-05-04 10:06 50.44164 -0.33863 24241 ft 466 kts 149°
2026-05-04 10:06 50.41463 -0.31171 24361 ft 466 kts 150°
2026-05-04 10:06 50.38732 -0.28452 24481 ft 465 kts 150°
2026-05-04 10:08 50.22442 -0.12276 25205 ft 460 kts 150°
2026-05-04 10:08 50.19739 -0.09605 25328 ft 459 kts 150°
2026-05-04 10:08 50.17043 -0.06938 25451 ft 458 kts 150°
2026-05-04 10:08 50.14352 -0.04282 25575 ft 458 kts 151°
2026-05-04 10:09 50.11649 -0.01678 25701 ft 455 kts 154°
2026-05-04 10:09 50.08779 0.00356 25797 ft 451 kts 163°
2026-05-04 10:09 50.05773 0.01674 25931 ft 449 kts 168°
2026-05-04 10:09 50.02739 0.02854 26049 ft 449 kts 168°
2026-05-04 10:10 49.99708 0.04044 26177 ft 449 kts 168°
2026-05-04 10:10 49.96680 0.05242 26300 ft 449 kts 168°
2026-05-04 10:10 49.93654 0.06439 26421 ft 448 kts 168°
2026-05-04 10:10 49.90627 0.07631 26550 ft 448 kts 168°
2026-05-04 10:11 49.87602 0.08821 26679 ft 448 kts 168°
2026-05-04 10:11 49.84586 0.10005 26802 ft 447 kts 168°
2026-05-04 10:11 49.81568 0.11189 26944 ft 447 kts 168°
2026-05-04 10:11 49.78551 0.12367 27070 ft 447 kts 168°
2026-05-04 10:12 49.75577 0.13518 27201 ft 446 kts 168°
2026-05-04 10:12 49.72567 0.14677 27332 ft 446 kts 168°
2026-05-04 10:12 49.69562 0.15841 27465 ft 446 kts 168°
2026-05-04 10:12 49.66551 0.17020 27600 ft 445 kts 168°
2026-05-04 10:13 49.63546 0.18220 27735 ft 445 kts 168°
2026-05-04 10:13 49.60553 0.19435 27872 ft 445 kts 168°
2026-05-04 10:13 49.58568 0.20243 27962 ft 445 kts 168°
2026-05-04 10:13 49.55578 0.21459 28098 ft 444 kts 168°
2026-05-04 10:14 49.52585 0.22669 28234 ft 444 kts 168°
2026-05-04 10:14 49.49600 0.23874 28366 ft 444 kts 168°
2026-05-04 10:16 49.28788 0.32203 29332 ft 440 kts 167°
2026-05-04 10:16 49.25832 0.33431 29474 ft 439 kts 167°
2026-05-04 10:16 49.22885 0.34680 29612 ft 439 kts 167°
2026-05-04 10:16 49.19940 0.35943 29731 ft 439 kts 167°
2026-05-04 10:17 49.17006 0.37200 29873 ft 438 kts 167°
2026-05-04 10:17 49.14075 0.38445 30019 ft 438 kts 167°
2026-05-04 10:19 48.93627 0.46980 30861 ft 435 kts 167°
2026-05-04 10:19 48.90704 0.48197 30994 ft 435 kts 167°
2026-05-04 10:19 48.87789 0.49411 31115 ft 434 kts 167°
2026-05-04 10:19 48.84873 0.50621 31228 ft 434 kts 167°
2026-05-04 10:20 48.81954 0.51827 31365 ft 434 kts 167°
2026-05-04 10:20 48.79045 0.53031 31484 ft 433 kts 167°
2026-05-04 10:20 48.76123 0.54222 31620 ft 433 kts 167°
2026-05-04 10:20 48.73210 0.55374 31744 ft 433 kts 168°
2026-05-04 10:21 48.70294 0.56504 31875 ft 432 kts 168°
2026-05-04 10:21 48.67376 0.57628 32007 ft 432 kts 168°
2026-05-04 10:21 48.64506 0.58738 32126 ft 432 kts 168°
2026-05-04 10:21 48.61598 0.59869 32256 ft 431 kts 168°
2026-05-04 10:22 48.55789 0.62130 32522 ft 431 kts 167°
2026-05-04 10:22 48.52889 0.63259 32650 ft 430 kts 167°
2026-05-04 10:22 48.49992 0.64395 32796 ft 430 kts 167°
2026-05-04 10:23 48.47095 0.65559 32921 ft 430 kts 167°
2026-05-04 10:23 48.44212 0.66738 33056 ft 430 kts 167°
2026-05-04 10:25 48.24054 0.74943 33997 ft 427 kts 167°
2026-05-04 10:25 48.21183 0.76085 34116 ft 427 kts 167°
2026-05-04 10:25 48.18307 0.77215 34234 ft 427 kts 167°
2026-05-04 10:25 48.15433 0.78340 34352 ft 427 kts 167°